OK2JCZ-6 Weather Reports


Display with metric or nautical units.
time (UTC)temp
F
wind
direction
speed
MPH
gust
MPH
rain 1hr
in
rain 24hr
in
rain mn
in
humidity
%
barometer
mb
20260905190825 61 5 0.0 0.0 0.00 0.00 0.00 41 1021.4
20260905190324 62 5 3.0 3.0 0.00 0.00 0.00 41 1021.3
20260905185824 62 4 3.0 4.0 0.00 0.00 0.00 41 1021.2
20260905185324 63 3 3.0 3.0 0.00 0.00 0.00 41 1021.0
20260905184324 64 4 5.0 6.0 0.00 0.00 0.00 41 1020.7
20260905183824 64 4 5.0 8.0 0.00 0.00 0.00 41 1020.7
20260905181824 64 63 8.0 10.0 0.00 0.00 0.00 40 1020.3
20260905181324 65 350 7.0 8.0 0.00 0.00 0.00 41 1020.3
20260905180824 65 310 5.0 5.0 0.00 0.00 0.00 41 1020.2
20260905180324 66 310 7.0 7.0 0.00 0.00 0.00 40 1020.1
20260905175824 66 309 6.0 7.0 0.00 0.00 0.00 40 1020.0
20260905175324 66 315 6.0 10.0 0.00 0.00 0.00 40 1020.0
20260905174824 66 304 9.0 11.0 0.00 0.00 0.00 40 1019.9
20260905174324 66 304 7.0 11.0 0.00 0.00 0.00 39 1019.8
20260905173824 66 321 7.0 10.0 0.00 0.00 0.00 39 1019.7
20260905173324 67 308 10.0 12.0 0.00 0.00 0.00 39 1019.6
20260905170824 68 299 12.0 15.0 0.00 0.00 0.00 37 1019.4
20260905170324 69 296 15.0 18.0 0.00 0.00 0.00 37 1019.3
20260905165824 69 298 10.0 13.0 0.00 0.00 0.00 36 1019.3
20260905165326 70 299 13.0 16.0 0.00 0.00 0.00 36 1019.2
20260905164324 70 282 9.0 13.0 0.00 0.00 0.00 35 1019.2
20260905163824 70 288 12.0 13.0 0.00 0.00 0.00 35 1019.1
20260905162824 71 286 12.0 15.0 0.00 0.00 0.00 34 1019.1
20260905162324 70 295 13.0 20.0 0.00 0.00 0.00 34 1019.1
20260905160824 69 299 8.0 11.0 0.00 0.00 0.00 36 1019.0
20260905160324 70 302 10.0 16.0 0.00 0.00 0.00 36 1019.0
20260905155824 70 296 9.0 17.0 0.00 0.00 0.00 36 1019.0
20260905155325 71 303 8.0 10.0 0.00 0.00 0.00 36 1019.0
20260905154824 71 293 13.0 15.0 0.00 0.00 0.00 35 1018.9
20260905154324 71 289 12.0 14.0 0.00 0.00 0.00 35 1018.9
20260905153324 71 295 13.0 15.0 0.00 0.00 0.00 34 1018.9
20260905152824 71 292 14.0 18.0 0.00 0.00 0.00 34 1018.9
20260905152325 70 314 16.0 19.0 0.00 0.00 0.00 34 1018.8
20260905151825 70 310 19.0 22.0 0.00 0.00 0.00 34 1018.8
20260905150824 70 300 12.0 19.0 0.00 0.00 0.00 35 1018.8
20260905150324 69 296 16.0 19.0 0.00 0.00 0.00 34 1018.8
20260905145824 69 304 11.0 17.0 0.00 0.00 0.00 34 1018.7
20260905145324 71 304 18.0 24.0 0.00 0.00 0.00 33 1018.8
20260905144824 71 289 14.0 22.0 0.00 0.00 0.00 33 1018.8
20260905144324 71 287 11.0 13.0 0.00 0.00 0.00 32 1018.8
20260905143824 71 288 15.0 18.0 0.00 0.00 0.00 32 1018.8
20260905143324 70 312 11.0 15.0 0.00 0.00 0.00 33 1018.9
20260905142824 70 294 10.0 14.0 0.00 0.00 0.00 33 1018.9
20260905142324 71 300 10.0 14.0 0.00 0.00 0.00 34 1019.0
20260905141324 71 301 13.0 16.0 0.00 0.00 0.00 33 1019.0
20260905140324 73 299 11.0 13.0 0.00 0.00 0.00 32 1019.1
20260905135324 72 316 12.0 13.0 0.00 0.00 0.00 32 1019.0
20260905134824 72 294 9.0 19.0 0.00 0.00 0.00 32 1019.0
20260905134324 71 314 15.0 18.0 0.00 0.00 0.00 32 1019.1
20260905133324 71 302 15.0 19.0 0.00 0.00 0.00 33 1019.1
20260905130324 72 303 15.0 18.0 0.00 0.00 0.00 32 1019.2
20260905125824 73 323 14.0 17.0 0.00 0.00 0.00 33 1019.2
20260905125324 73 317 14.0 17.0 0.00 0.00 0.00 32 1019.1
20260905124824 73 303 13.0 17.0 0.00 0.00 0.00 33 1019.1
20260905124324 73 329 18.0 21.0 0.00 0.00 0.00 33 1019.0
20260905123824 73 319 14.0 17.0 0.00 0.00 0.00 32 1019.0
20260905123324 73 309 12.0 13.0 0.00 0.00 0.00 33 1019.1
20260905122324 72 297 11.0 16.0 0.00 0.00 0.00 33 1019.2
20260905121824 71 310 15.0 21.0 0.00 0.00 0.00 33 1019.2
20260905121324 71 307 14.0 18.0 0.00 0.00 0.00 34 1019.2
20260905120824 71 327 16.0 19.0 0.00 0.00 0.00 34 1019.3
20260905120324 71 313 12.0 20.0 0.00 0.00 0.00 33 1019.3
20260905115824 74 312 15.0 17.0 0.00 0.00 0.00 34 1019.3
20260905115324 74 305 16.0 18.0 0.00 0.00 0.00 32 1019.2
20260905114824 74 277 13.0 17.0 0.00 0.00 0.00 32 1019.2
20260905114324 74 299 14.0 17.0 0.00 0.00 0.00 32 1019.2
20260905113824 73 300 10.0 15.0 0.00 0.00 0.00 33 1019.2
20260905113324 73 295 12.0 14.0 0.00 0.00 0.00 33 1019.3
20260905112824 72 271 12.0 15.0 0.00 0.00 0.00 33 1019.3
20260905112324 72 279 13.0 15.0 0.00 0.00 0.00 33 1019.3
20260905111325 73 314 16.0 18.0 0.00 0.00 0.00 35 1019.3
20260905110824 74 290 11.0 16.0 0.00 0.00 0.00 35 1019.3
20260905110324 74 294 12.0 19.0 0.00 0.00 0.00 35 1019.2
20260905105824 72 314 13.0 15.0 0.00 0.00 0.00 36 1019.2
20260905105324 72 314 16.0 17.0 0.00 0.00 0.00 36 1019.2
20260905103824 71 321 16.0 19.0 0.00 0.00 0.00 37 1019.2
20260905102825 72 327 15.0 16.0 0.00 0.00 0.00 38 1019.2
20260905102325 72 315 13.0 16.0 0.00 0.00 0.00 38 1019.1
20260905101824 72 323 15.0 16.0 0.00 0.00 0.00 38 1019.2
20260905101324 72 305 12.0 15.0 0.00 0.00 0.00 38 1019.3
20260905100324 71 311 12.0 15.0 0.00 0.00 0.00 40 1019.4
20260905095824 71 310 13.0 15.0 0.00 0.00 0.00 40 1019.4
20260905095324 71 275 11.0 14.0 0.00 0.00 0.00 40 1019.5
20260905093824 70 304 13.0 16.0 0.00 0.00 0.00 42 1019.5
20260905093324 70 303 13.0 14.0 0.00 0.00 0.00 42 1019.5
20260905092824 69 290 12.0 13.0 0.00 0.00 0.00 43 1019.6
20260905091324 68 307 11.0 13.0 0.00 0.00 0.00 47 1019.6
20260905085824 67 323 10.0 15.0 0.00 0.00 0.00 49 1019.6
20260905085324 67 312 9.0 11.0 0.00 0.00 0.00 52 1019.6
20260905084824 65 291 10.0 12.0 0.00 0.00 0.00 53 1019.5
20260905083824 62 288 9.0 12.0 0.00 0.00 0.00 57 1019.5
20260905083324 62 290 10.0 13.0 0.00 0.00 0.00 59 1019.5
20260905082824 61 305 8.0 12.0 0.00 0.00 0.00 60 1019.6
20260905081325 61 298 10.0 12.0 0.00 0.00 0.00 61 1019.5
20260905080824 61 301 8.0 11.0 0.00 0.00 0.00 62 1019.4
20260905080324 61 307 7.0 9.0 0.00 0.00 0.00 62 1019.2
20260905075824 60 310 7.0 9.0 0.00 0.00 0.00 62 1019.2
20260905074824 59 286 5.0 7.0 0.00 0.00 0.00 64 1019.0
20260905073325 58 323 6.0 8.0 0.00 0.00 0.00 65 1018.7
20260905072324 57 322 8.0 9.0 0.00 0.00 0.00 66 1018.4
20260905071824 57 328 5.0 7.0 0.00 0.00 0.00 66 1018.2
20260905071324 57 327 6.0 7.0 0.00 0.00 0.00 66 1018.2
20260905070324 57 305 7.0 10.0 0.00 0.00 0.00 66 1018.4
20260905065824 56 301 6.0 8.0 0.00 0.00 0.00 66 1018.6
20260905065324 56 296 6.0 8.0 0.00 0.00 0.00 67 1018.4
20260905063824 55 280 8.0 9.0 0.00 0.00 0.00 67 1018.5
20260905063324 55 282 6.0 9.0 0.00 0.00 0.00 67 1018.7
20260905062824 55 253 4.0 8.0 0.00 0.00 0.00 68 1018.6
20260905062324 55 247 8.0 10.0 0.00 0.00 0.00 71 1018.2
20260905061324 55 271 7.0 11.0 0.00 0.00 0.00 70 1018.2
20260905060824 56 236 7.0 10.0 0.00 0.00 0.00 70 1017.9
20260905055824 56 280 5.0 7.0 0.00 0.00 0.00 64 1018.5
20260905055324 56 299 4.0 7.0 0.00 0.00 0.00 64 1018.6
20260905054824 56 319 7.0 8.0 0.00 0.00 0.00 64 1018.6
20260905054324 56 319 7.0 8.0 0.00 0.00 0.00 64 1018.6
20260905053824 56 318 6.0 8.0 0.00 0.00 0.00 64 1018.7
20260905053324 56 314 9.0 10.0 0.00 0.00 0.00 64 1018.7
20260905052824 57 312 14.0 16.0 0.00 0.00 0.00 64 1018.5
20260905051324 57 322 14.0 16.0 0.00 0.00 0.00 65 1018.1
20260905050824 57 324 10.0 12.0 0.00 0.00 0.00 65 1018.0
20260905050324 57 309 7.0 8.0 0.00 0.00 0.00 64 1017.9
20260905045824 57 304 7.0 9.0 0.00 0.00 0.00 64 1017.8
20260905044824 57 290 5.0 6.0 0.00 0.00 0.00 63 1017.9
20260905043824 58 312 7.0 8.0 0.00 0.00 0.00 63 1017.7
20260905043324 58 311 7.0 8.0 0.00 0.00 0.00 63 1017.7
20260905042824 58 301 7.0 9.0 0.00 0.00 0.00 63 1017.7
20260905041825 58 305 7.0 8.0 0.00 0.00 0.00 63 1017.3
20260905041324 58 303 8.0 9.0 0.00 0.00 0.00 64 1017.2
20260905040324 58 296 7.0 7.0 0.00 0.00 0.00 63 1017.0
20260905035824 59 320 6.0 9.0 0.00 0.00 0.00 63 1016.8
20260905034824 59 315 8.0 9.0 0.00 0.00 0.00 63 1016.9
20260905034324 59 325 8.0 10.0 0.00 0.00 0.00 64 1016.5
20260905033824 59 350 7.0 10.0 0.00 0.00 0.00 63 1017.0
20260905032824 59 337 10.0 11.0 0.00 0.00 0.00 63 1016.4
20260905032324 59 332 8.0 11.0 0.00 0.00 0.00 63 1016.4
20260905031324 60 344 9.0 13.0 0.00 0.00 0.00 62 1016.2
20260905030824 61 290 15.0 17.0 0.00 0.00 0.00 62 1016.4
20260905030324 61 335 12.0 15.0 0.00 0.00 0.00 62 1016.6
20260905025824 62 323 12.0 14.0 0.00 0.00 0.00 61 1016.7
20260905025324 62 341 11.0 13.0 0.00 0.00 0.00 60 1016.3
20260905024824 62 332 12.0 13.0 0.00 0.00 0.00 58 1016.1
20260905024325 62 339 8.0 10.0 0.00 0.00 0.00 54 1015.8
20260905023824 63 336 7.0 9.0 0.00 0.00 0.00 53 1015.6
20260905021825 64 348 12.0 14.0 0.00 0.00 0.00 52 1015.6
20260905021324 64 339 9.0 11.0 0.00 0.00 0.00 51 1015.8
20260905015325 64 345 9.0 12.0 0.00 0.00 0.00 50 1015.2
20260905014824 64 341 12.0 13.0 0.00 0.00 0.00 50 1015.2
20260905014324 64 347 14.0 15.0 0.00 0.00 0.00 50 1015.2
20260905013824 64 345 10.0 17.0 0.00 0.00 0.00 50 1015.3
20260905012824 65 348 10.0 13.0 0.00 0.00 0.00 48 1015.1
20260905011324 65 287 9.0 11.0 0.00 0.00 0.00 48 1015.3
20260905010824 65 349 14.0 17.0 0.00 0.00 0.00 49 1015.3
20260905010324 65 346 12.0 14.0 0.00 0.00 0.00 49 1015.2
20260905005823 65 183 14.0 17.0 0.00 0.00 0.00 49 1015.0
20260905005323 65 234 15.0 17.0 0.00 0.00 0.00 50 1015.0
20260905004823 66 180 11.0 18.0 0.00 0.00 0.00 50 1014.9
20260905004323 66 66 15.0 20.0 0.00 0.00 0.00 50 1014.8
20260905003823 69 71 14.0 16.0 0.00 0.00 0.00 49 1014.5
20260905003323 69 183 13.0 17.0 0.00 0.00 0.00 47 1014.1
20260905002823 72 124 15.0 18.0 0.00 0.00 0.00 45 1014.0
20260905002323 72 71 20.0 22.0 0.00 0.00 0.00 44 1013.6
20260905001324 74 302 7.0 9.0 0.00 0.00 0.00 39 1012.9
20260904235823 73 277 6.0 7.0 0.00 0.00 0.00 39 1012.5
20260904235323 73 272 7.0 8.0 0.00 0.00 0.00 39 1012.5
20260904234823 73 264 8.0 10.0 0.00 0.00 0.00 39 1012.4
20260904234323 73 264 7.0 9.0 0.00 0.00 0.00 39 1012.4
20260904233823 73 252 9.0 10.0 0.00 0.00 0.00 39 1012.5
20260904233323 73 256 6.0 9.0 0.00 0.00 0.00 39 1012.5
20260904232823 72 247 6.0 7.0 0.00 0.00 0.00 39 1012.4
20260904232323 72 237 6.0 6.0 0.00 0.00 0.00 39 1012.5
20260904231323 73 269 3.0 5.0 0.00 0.00 0.00 39 1012.4
20260904230823 74 268 4.0 5.0 0.00 0.00 0.00 38 1012.3
20260904230323 74 269 4.0 5.0 0.00 0.00 0.00 38 1012.3
20260904225823 74 269 3.0 4.0 0.00 0.00 0.00 38 1012.2
20260904225323 74 269 4.0 4.0 0.00 0.00 0.00 38 1012.3
20260904224823 74 269 5.0 5.0 0.00 0.00 0.00 38 1012.3
20260904224323 74 269 2.0 5.0 0.00 0.00 0.00 38 1012.3
20260904223823 73 269 3.0 5.0 0.00 0.00 0.00 38 1012.3
20260904223324 73 269 6.0 7.0 0.00 0.00 0.00 39 1012.3
20260904222823 73 252 4.0 5.0 0.00 0.00 0.00 38 1012.3
20260904222323 73 252 6.0 9.0 0.00 0.00 0.00 39 1012.3
20260904221323 73 252 5.0 7.0 0.00 0.00 0.00 39 1012.3
20260904220823 72 251 4.0 4.0 0.00 0.00 0.00 39 1012.2
20260904220323 72 210 4.0 6.0 0.00 0.00 0.00 40 1012.2
20260904215823 71 209 4.0 5.0 0.00 0.00 0.00 40 1012.2
20260904214823 70 209 4.0 4.0 0.00 0.00 0.00 40 1012.3
20260904214323 70 208 2.0 3.0 0.00 0.00 0.00 40 1012.3
20260904213823 69 208 1.0 2.0 0.00 0.00 0.00 40 1012.3
20260904212323 69 208 2.0 3.0 0.00 0.00 0.00 40 1012.3
20260904211823 70 208 3.0 3.0 0.00 0.00 0.00 41 1012.3
20260904210824 71 208 4.0 4.0 0.00 0.00 0.00 40 1012.3
20260904210324 71 208 4.0 5.0 0.00 0.00 0.00 40 1012.3
20260904205323 71 208 5.0 6.0 0.00 0.00 0.00 40 1012.3
20260904204823 71 208 5.0 6.0 0.00 0.00 0.00 40 1012.3
20260904204323 71 210 6.0 7.0 0.00 0.00 0.00 40 1012.3
20260904203823 72 213 6.0 6.0 0.00 0.00 0.00 40 1012.3
20260904203323 72 215 4.0 4.0 0.00 0.00 0.00 39 1012.3
20260904202323 72 216 6.0 6.0 0.00 0.00 0.00 39 1012.3
20260904201823 72 219 6.0 7.0 0.00 0.00 0.00 39 1012.4
20260904200823 72 225 5.0 6.0 0.00 0.00 0.00 39 1012.4
20260904200323 72 226 6.0 6.0 0.00 0.00 0.00 38 1012.5
20260904195823 73 227 6.0 6.0 0.00 0.00 0.00 38 1012.6
20260904195323 73 231 6.0 6.0 0.00 0.00 0.00 38 1012.7
20260904194823 74 233 5.0 6.0 0.00 0.00 0.00 37 1012.8
20260904194323 74 233 4.0 4.0 0.00 0.00 0.00 36 1012.9
20260904193823 74 233 4.0 6.0 0.00 0.00 0.00 36 1012.9
20260904192823 75 233 3.0 4.0 0.00 0.00 0.00 36 1013.0
20260904192323 75 233 4.0 4.0 0.00 0.00 0.00 36 1013.0
20260904191823 75 233 4.0 4.0 0.00 0.00 0.00 35 1013.0
20260904191323 75 233 4.0 4.0 0.00 0.00 0.00 35 1013.0